Regional Weather Roundup
Issued by NWS

Home | Current Version | Previous Version | Text Only | Print | Product List | Glossary Off
Versions: 1 2 3 4 5 6 7 8 9 10 11 12 13 14 15 16 17 18 19 20 21 22 23 24 25 26 27 28 29 30 31 32 33 34 35 36 37 38 39 40 41 42 43 44 45 46 47 48 49 50

000
ASUS43 KOAX 190210
RWRNE

WEATHER ROUNDUP FOR NEBRASKA
NATIONAL WEATHER SERVICE OMAHA NE
800 PM CST THU JAN 18 2018

NOTES: SATELLITE DATA IS BEING USED TO AUGMENT CLOUD COVER ABOVE
       12000 FEET.
       "FAIR" INDICATES FEW OR NO CLOUDS BELOW 12,000 FEET WITH NO
       SIGNIFICANT WEATHER AND/OR OBSTRUCTIONS TO VISIBILITY.


NEZ001>004-019>022-054>056-190300-
NEBRASKA PANHANDLE

CITY           SKY/WX    TMP DP  RH WIND       PRES   REMARKS
SCOTTSBLUFF    CLOUDY    46  31  55 W12       29.88F
ALLIANCE       CLOUDY    32  29  88 SW6       29.86S WCI  26
CHADRON        CLOUDY    34  29  82 CALM      29.81F
GORDON         FAIR      41  32  69 CALM      29.81F
KIMBALL        CLOUDY    39  22  50 W9        29.94S WCI  33
SIDNEY         MOCLDY    34  22  61 SW8       29.92S WCI  27
$$

NEZ057>060-069>072-079>082-190300-
SOUTHWEST NEBRASKA

CITY           SKY/WX    TMP DP  RH WIND       PRES   REMARKS
NORTH PLATTE   CLOUDY    29  24  82 CALM      29.90S
IMPERIAL       CLOUDY    38  26  62 S5        29.90F WCI  34
LEXINGTON      CLOUDY    37  28  70 CALM      29.90S
MCCOOK         MOCLDY    39  25  57 SW5       29.90F
OGALLALA       PTCLDY    34  27  75 CALM      29.89F
$$

NEZ005>010-023>029-035>040-094-190300-
NORTH CENTRAL NEBRASKA

CITY           SKY/WX    TMP DP  RH WIND       PRES   REMARKS
VALENTINE      CLOUDY    39  30  70 SW6       29.80F WCI  35
AINSWORTH      CLOUDY    37  32  81 SW7       29.81F WCI  32
BROKEN BOW     MOCLDY    37  29  72 CALM      29.87F
O`NEILL        PTCLDY    34  30  86 SW7       29.83R WCI  28
ORD            CLOUDY    34  28  79 SW7       29.85F WCI  28
THEDFORD       MOCLDY    38  31  74 W5        29.86S WCI  35
$$

NEZ041-046>049-061>064-073>077-083>087-190300-
SOUTH CENTRAL NEBRASKA

CITY           SKY/WX    TMP DP  RH WIND       PRES   REMARKS
GRAND ISLAND   CLOUDY    34  29  82 SW8       29.89F WCI  27
AURORA         CLOUDY    33  28  80 SW5       29.89F WCI  28
HASTINGS       CLOUDY    39  26  59 SW6       29.90F WCI  35
HEBRON         CLOUDY    39  28  64 SW7       29.93S WCI  34
HOLDREGE       CLOUDY    40  27  58 SW5       29.90F
KEARNEY        CLOUDY    39  26  59 SW10      29.90F WCI  32
YORK           PTCLDY    32  28  86 SW9       29.90F WCI  24
$$

NEZ011>018-030>034-042>045-190300-
NORTHEAST NEBRASKA

CITY           SKY/WX    TMP DP  RH WIND       PRES   REMARKS
NORFOLK        CLOUDY    33  29  85 S10       29.83F WCI  25
ALBION         CLOUDY    35  29  80 CALM      29.86F
BLAIR          CLOUDY    31  25  77 S12       29.90F WCI  22
COLUMBUS       CLOUDY    35  29  78 S5        29.89F WCI  31
FREMONT        CLOUDY    34  26  70 S9        29.90F WCI  27
TEKAMAH        CLOUDY    29  23  78 SE10      29.90S WCI  20
WAYNE          CLOUDY    30  29  96 S6        29.85F WCI  24
$$

NEZ050>053-065>068-078-088>093-190300-
SOUTHEAST NEBRASKA

CITY           SKY/WX    TMP DP  RH WIND       PRES   REMARKS
LINCOLN        CLOUDY    31  23  72 S6        29.93F WCI  25
OMAHA EPPLEY   CLOUDY    28  21  75 S10       29.94F WCI  19
BEATRICE       CLOUDY    35  26  69 S10       29.94F WCI  27
FALLS CITY     CLOUDY    35  25  66 S9        29.98F WCI  28
NEBRASKA CITY  CLOUDY    33  26  73 SW9       29.96S WCI  26
PLATTSMOUTH    CLOUDY    29  22  74 S8        29.94F WCI  21
$$

NEZ044-045-051>053-067-190300-
OMAHA AREA

CITY           SKY/WX    TMP DP  RH WIND       PRES   REMARKS
OMAHA EPPLEY   CLOUDY    28  21  75 S10       29.94F WCI  19
BLAIR          CLOUDY    31  25  77 S12       29.90F WCI  22
FREMONT        CLOUDY    34  26  70 S9        29.90F WCI  27
MILLARD        CLOUDY    30  24  75 SE5       29.94F WCI  26
OFFUTT AFB     CLOUDY    28  20  73 S3        29.94F
PLATTSMOUTH    CLOUDY    29  22  74 S8        29.94F WCI  21
WAHOO          FAIR      29  24  80 S5        29.91F WCI  24
$$




USA.gov is the U.S. government's official web portal to all federal, state and local government web resources and services.